| time (UTC) | temp C | wind direction | speed KPH | gust KPH | rain 1hr cm | rain 24hr cm | rain mn cm | humidity % | barometer mb |
| 20260901190505 | 18 | 162 | 8.0 | 11.3 | 0.00 | 0.00 | 0.00 | 73 | 1011.6 |
| 20260901190005 | 18 | 153 | 8.0 | 12.9 | 0.00 | 0.00 | 0.00 | 74 | 1011.8 |
| 20260901185505 | 18 | 131 | 8.0 | 16.1 | 0.00 | 0.00 | 0.00 | 74 | 1011.8 |
| 20260901184505 | 18 | 199 | 6.4 | 12.9 | 0.00 | 0.00 | 0.00 | 74 | 1012.0 |
| 20260901184004 | 18 | 175 | 9.7 | 16.1 | 0.00 | 0.00 | 0.00 | 73 | 1011.9 |
| 20260901183505 | 18 | 197 | 4.8 | 12.9 | 0.00 | 0.00 | 0.00 | 72 | 1011.9 |
| 20260901183005 | 18 | 175 | 4.8 | 14.5 | 0.00 | 0.00 | 0.00 | 73 | 1011.9 |
| 20260901182505 | 18 | 137 | 6.4 | 12.9 | 0.00 | 0.00 | 0.00 | 72 | 1012.0 |
| 20260901182005 | 18 | 173 | 8.0 | 19.3 | 0.00 | 0.00 | 0.00 | 72 | 1011.9 |
| 20260901181505 | 18 | 162 | 4.8 | 12.9 | 0.00 | 0.00 | 0.00 | 72 | 1012.0 |
| 20260901181005 | 18 | 104 | 8.0 | 16.1 | 0.00 | 0.00 | 0.00 | 73 | 1012.0 |
| 20260901180505 | 17 | 195 | 9.7 | 12.9 | 0.00 | 0.00 | 0.00 | 75 | 1011.9 |
| 20260901175505 | 17 | 154 | 8.0 | 14.5 | 0.00 | 0.00 | 0.00 | 76 | 1011.9 |
| 20260901175005 | 17 | 134 | 9.7 | 14.5 | 0.00 | 0.00 | 0.00 | 75 | 1011.9 |
| 20260901174505 | 17 | 138 | 6.4 | 14.5 | 0.00 | 0.00 | 0.00 | 76 | 1011.9 |
| 20260901174008 | 17 | 190 | 8.0 | 19.3 | 0.00 | 0.00 | 0.00 | 76 | 1011.9 |
| 20260901173504 | 17 | 132 | 9.7 | 19.3 | 0.00 | 0.00 | 0.00 | 77 | 1011.9 |
| 20260901173005 | 17 | 132 | 4.8 | 12.9 | 0.00 | 0.00 | 0.00 | 78 | 1011.9 |
| 20260901172005 | 17 | 186 | 8.0 | 12.9 | 0.00 | 0.00 | 0.00 | 78 | 1012.0 |
| 20260901171504 | 16 | 188 | 8.0 | 14.5 | 0.00 | 0.00 | 0.00 | 78 | 1011.9 |
| 20260901171004 | 16 | 164 | 8.0 | 14.5 | 0.00 | 0.00 | 0.00 | 79 | 1011.9 |
| 20260901170505 | 16 | 188 | 9.7 | 14.5 | 0.00 | 0.00 | 0.00 | 80 | 1011.8 |
| 20260901170005 | 16 | 206 | 8.0 | 11.3 | 0.00 | 0.00 | 0.00 | 80 | 1011.8 |
| 20260901165505 | 16 | 205 | 9.7 | 14.5 | 0.00 | 0.00 | 0.00 | 80 | 1011.8 |
| 20260901165005 | 16 | 206 | 6.4 | 14.5 | 0.00 | 0.00 | 0.00 | 81 | 1011.8 |
| 20260901163505 | 16 | 188 | 4.8 | 14.5 | 0.00 | 0.00 | 0.00 | 82 | 1011.9 |
| 20260901163005 | 16 | 193 | 8.0 | 12.9 | 0.00 | 0.00 | 0.00 | 81 | 1011.9 |
| 20260901162005 | 16 | 199 | 6.4 | 9.7 | 0.00 | 0.00 | 0.00 | 82 | 1011.9 |
| 20260901161505 | 16 | 163 | 6.4 | 11.3 | 0.00 | 0.00 | 0.00 | 83 | 1011.9 |
| 20260901161005 | 15 | 164 | 3.2 | 8.0 | 0.00 | 0.00 | 0.00 | 83 | 1011.9 |
| 20260901160505 | 15 | 153 | 4.8 | 9.7 | 0.00 | 0.00 | 0.00 | 84 | 1012.0 |
| 20260901160005 | 15 | 162 | 4.8 | 9.7 | 0.00 | 0.00 | 0.00 | 84 | 1011.9 |
| 20260901155505 | 15 | 128 | 4.8 | 9.7 | 0.00 | 0.00 | 0.00 | 84 | 1012.0 |
| 20260901155005 | 15 | 196 | 3.2 | 8.0 | 0.00 | 0.00 | 0.00 | 84 | 1012.0 |
| 20260901154505 | 15 | 188 | 8.0 | 11.3 | 0.00 | 0.00 | 0.00 | 84 | 1012.0 |
| 20260901153505 | 15 | 153 | 4.8 | 9.7 | 0.00 | 0.00 | 0.00 | 83 | 1012.0 |
| 20260901153005 | 15 | 187 | 3.2 | 4.8 | 0.00 | 0.00 | 0.00 | 84 | 1012.0 |
| 20260901152504 | 15 | 191 | 3.2 | 4.8 | 0.00 | 0.00 | 0.00 | 84 | 1012.0 |
| 20260901151505 | 15 | 149 | 4.8 | 8.0 | 0.00 | 0.00 | 0.00 | 84 | 1012.0 |
| 20260901151004 | 15 | 191 | 3.2 | 3.2 | 0.00 | 0.00 | 0.00 | 84 | 1011.9 |
| 20260901150005 | 15 | 138 | 1.6 | 3.2 | 0.00 | 0.00 | 0.00 | 85 | 1011.8 |
| 20260901145506 | 15 | 288 | 0.0 | 3.2 | 0.00 | 0.00 | 0.00 | 86 | 1011.8 |
| 20260901145005 | 15 | 288 | 0.0 | 0.0 | 0.00 | 0.00 | 0.00 | 86 | 1011.8 |
| 20260901144505 | 15 | 288 | 0.0 | 3.2 | 0.00 | 0.00 | 0.00 | 86 | 1011.7 |
| 20260901144005 | 15 | 252 | 0.0 | 3.2 | 0.00 | 0.00 | 0.00 | 86 | 1011.6 |
| 20260901143505 | 15 | 252 | 0.0 | 3.2 | 0.00 | 0.00 | 0.00 | 86 | 1011.6 |
| 20260901143005 | 15 | 252 | 0.0 | 0.0 | 0.00 | 0.00 | 0.00 | 85 | 1011.7 |
| 20260901142504 | 15 | 252 | 0.0 | 0.0 | 0.00 | 0.00 | 0.00 | 85 | 1011.7 |
| 20260901142005 | 15 | 252 | 0.0 | 0.0 | 0.00 | 0.00 | 0.00 | 85 | 1011.6 |
| 20260901141504 | 15 | 252 | 0.0 | 0.0 | 0.00 | 0.00 | 0.00 | 85 | 1011.6 |
| 20260901141005 | 15 | 252 | 0.0 | 0.0 | 0.00 | 0.00 | 0.00 | 85 | 1011.5 |
| 20260901140505 | 15 | 252 | 0.0 | 0.0 | 0.00 | 0.00 | 0.00 | 85 | 1011.6 |
| 20260901140004 | 15 | 252 | 0.0 | 0.0 | 0.00 | 0.00 | 0.00 | 85 | 1011.5 |
| 20260901135505 | 14 | 252 | 0.0 | 0.0 | 0.00 | 0.00 | 0.00 | 85 | 1011.5 |
| 20260901134505 | 14 | 252 | 0.0 | 0.0 | 0.00 | 0.00 | 0.00 | 85 | 1011.4 |
| 20260901134005 | 14 | 252 | 0.0 | 0.0 | 0.00 | 0.00 | 0.00 | 85 | 1011.4 |
| 20260901133005 | 14 | 252 | 0.0 | 0.0 | 0.00 | 0.00 | 0.00 | 85 | 1011.4 |
| 20260901132505 | 14 | 252 | 0.0 | 0.0 | 0.00 | 0.00 | 0.00 | 85 | 1011.3 |
| 20260901132005 | 14 | 252 | 0.0 | 0.0 | 0.00 | 0.00 | 0.00 | 85 | 1011.3 |
| 20260901131006 | 14 | 252 | 0.0 | 0.0 | 0.00 | 0.00 | 0.00 | 85 | 1011.4 |
| 20260901130505 | 14 | 252 | 0.0 | 0.0 | 0.00 | 0.00 | 0.00 | 85 | 1011.3 |
| 20260901125505 | 14 | 252 | 0.0 | 0.0 | 0.00 | 0.00 | 0.00 | 85 | 1011.3 |
| 20260901125004 | 14 | 252 | 0.0 | 0.0 | 0.00 | 0.00 | 0.00 | 85 | 1011.2 |
| 20260901124506 | 14 | 252 | 1.6 | 3.2 | 0.00 | 0.00 | 0.00 | 85 | 1011.3 |
| 20260901124005 | 14 | 252 | 1.6 | 3.2 | 0.00 | 0.00 | 0.00 | 85 | 1011.2 |
| 20260901123004 | 14 | 252 | 0.0 | 0.0 | 0.00 | 0.00 | 0.00 | 86 | 1011.2 |
| 20260901122504 | 14 | 252 | 0.0 | 0.0 | 0.00 | 0.00 | 0.00 | 86 | 1011.2 |
| 20260901122005 | 14 | 252 | 0.0 | 0.0 | 0.00 | 0.00 | 0.00 | 86 | 1011.3 |
| 20260901121505 | 14 | 252 | 1.6 | 1.6 | 0.00 | 0.00 | 0.00 | 86 | 1011.2 |
| 20260901121005 | 14 | 252 | 0.0 | 0.0 | 0.00 | 0.00 | 0.00 | 86 | 1011.1 |
| 20260901120505 | 14 | 252 | 0.0 | 3.2 | 0.00 | 0.00 | 0.00 | 86 | 1011.1 |
| 20260901120004 | 14 | 252 | 0.0 | 0.0 | 0.00 | 0.00 | 0.00 | 86 | 1011.0 |
| 20260901115505 | 14 | 252 | 0.0 | 1.6 | 0.00 | 0.00 | 0.00 | 86 | 1011.0 |
| 20260901115005 | 13 | 252 | 0.0 | 3.2 | 0.00 | 0.00 | 0.00 | 86 | 1011.1 |
| 20260901114505 | 13 | 252 | 0.0 | 3.2 | 0.00 | 0.00 | 0.00 | 87 | 1011.2 |
| 20260901114005 | 13 | 229 | 1.6 | 3.2 | 0.00 | 0.00 | 0.00 | 87 | 1011.2 |
| 20260901113505 | 13 | 206 | 0.0 | 3.2 | 0.00 | 0.00 | 0.00 | 86 | 1011.2 |
| 20260901113005 | 13 | 206 | 1.6 | 3.2 | 0.00 | 0.00 | 0.00 | 86 | 1011.2 |
| 20260901112005 | 13 | 206 | 0.0 | 3.2 | 0.00 | 0.00 | 0.00 | 86 | 1011.0 |
| 20260901111504 | 13 | 202 | 0.0 | 0.0 | 0.00 | 0.00 | 0.00 | 86 | 1011.0 |
| 20260901111005 | 13 | 202 | 0.0 | 0.0 | 0.00 | 0.00 | 0.00 | 86 | 1011.0 |
| 20260901110005 | 13 | 202 | 0.0 | 0.0 | 0.00 | 0.00 | 0.00 | 85 | 1010.9 |
| 20260901105505 | 13 | 202 | 0.0 | 0.0 | 0.00 | 0.00 | 0.00 | 85 | 1010.8 |
| 20260901105004 | 13 | 202 | 0.0 | 0.0 | 0.00 | 0.00 | 0.00 | 85 | 1010.7 |
| 20260901104505 | 14 | 202 | 0.0 | 0.0 | 0.00 | 0.00 | 0.00 | 85 | 1010.6 |
| 20260901103505 | 14 | 199 | 1.6 | 3.2 | 0.00 | 0.00 | 0.00 | 84 | 1010.5 |
| 20260901103005 | 14 | 325 | 1.6 | 4.8 | 0.00 | 0.00 | 0.00 | 84 | 1010.5 |
| 20260901102505 | 14 | 191 | 3.2 | 8.0 | 0.00 | 0.00 | 0.00 | 84 | 1010.5 |
| 20260901102005 | 14 | 186 | 3.2 | 8.0 | 0.00 | 0.00 | 0.00 | 84 | 1010.6 |
| 20260901101504 | 14 | 346 | 1.6 | 8.0 | 0.00 | 0.00 | 0.00 | 84 | 1010.6 |
| 20260901101005 | 14 | 153 | 1.6 | 4.8 | 0.00 | 0.00 | 0.00 | 84 | 1010.6 |
| 20260901100505 | 14 | 198 | 4.8 | 11.3 | 0.00 | 0.00 | 0.00 | 84 | 1010.6 |
| 20260901100005 | 14 | 183 | 3.2 | 12.9 | 0.00 | 0.00 | 0.00 | 84 | 1010.7 |
| 20260901095505 | 15 | 186 | 4.8 | 9.7 | 0.00 | 0.00 | 0.00 | 84 | 1010.6 |
| 20260901095005 | 15 | 191 | 9.7 | 16.1 | 0.00 | 0.00 | 0.00 | 84 | 1010.5 |
| 20260901094505 | 15 | 185 | 3.2 | 9.7 | 0.00 | 0.00 | 0.00 | 83 | 1010.5 |
| 20260901093504 | 15 | 256 | 0.0 | 3.2 | 0.00 | 0.00 | 0.00 | 83 | 1010.4 |
| 20260901093005 | 15 | 256 | 1.6 | 4.8 | 0.00 | 0.00 | 0.00 | 83 | 1010.2 |
| 20260901092004 | 15 | 197 | 1.6 | 3.2 | 0.00 | 0.00 | 0.00 | 82 | 1010.1 |
| 20260901091505 | 15 | 242 | 1.6 | 4.8 | 0.00 | 0.00 | 0.00 | 82 | 1010.1 |
| 20260901091005 | 15 | 189 | 3.2 | 4.8 | 0.00 | 0.00 | 0.00 | 82 | 1010.1 |
| 20260901090505 | 15 | 189 | 1.6 | 8.0 | 0.00 | 0.00 | 0.00 | 82 | 1010.1 |
| 20260901085504 | 15 | 190 | 3.2 | 4.8 | 0.00 | 0.00 | 0.00 | 81 | 1010.1 |
| 20260901085005 | 15 | 337 | 4.8 | 8.0 | 0.00 | 0.00 | 0.00 | 81 | 1010.1 |
| 20260901084505 | 15 | 0 | 3.2 | 8.0 | 0.00 | 0.00 | 0.00 | 80 | 1010.0 |
| 20260901084004 | 15 | 208 | 3.2 | 8.0 | 0.00 | 0.00 | 0.00 | 80 | 1010.1 |
| 20260901083505 | 15 | 195 | 4.8 | 11.3 | 0.00 | 0.00 | 0.00 | 80 | 1010.1 |
| 20260901083004 | 16 | 182 | 4.8 | 9.7 | 0.00 | 0.00 | 0.00 | 80 | 1010.1 |
| 20260901082504 | 16 | 205 | 8.0 | 11.3 | 0.00 | 0.00 | 0.00 | 80 | 1010.1 |
| 20260901082005 | 16 | 195 | 9.7 | 19.3 | 0.00 | 0.00 | 0.00 | 80 | 1010.1 |
| 20260901081505 | 16 | 208 | 8.0 | 16.1 | 0.00 | 0.00 | 0.00 | 79 | 1010.1 |
| 20260901081004 | 16 | 185 | 4.8 | 11.3 | 0.00 | 0.00 | 0.00 | 79 | 1010.1 |
| 20260901080505 | 16 | 198 | 4.8 | 11.3 | 0.00 | 0.00 | 0.00 | 79 | 1009.9 |
| 20260901080004 | 16 | 205 | 4.8 | 12.9 | 0.00 | 0.00 | 0.00 | 78 | 1009.9 |
| 20260901075505 | 16 | 196 | 8.0 | 14.5 | 0.00 | 0.00 | 0.00 | 78 | 1009.8 |
| 20260901075005 | 16 | 175 | 6.4 | 12.9 | 0.00 | 0.00 | 0.00 | 77 | 1009.8 |
| 20260901074505 | 16 | 195 | 8.0 | 14.5 | 0.00 | 0.00 | 0.00 | 77 | 1009.8 |
| 20260901074005 | 16 | 188 | 8.0 | 14.5 | 0.00 | 0.00 | 0.00 | 77 | 1009.7 |
| 20260901073504 | 16 | 1 | 6.4 | 14.5 | 0.00 | 0.00 | 0.00 | 77 | 1009.7 |
| 20260901073005 | 16 | 192 | 3.2 | 9.7 | 0.00 | 0.00 | 0.00 | 77 | 1009.7 |
| 20260901071505 | 16 | 175 | 3.2 | 8.0 | 0.00 | 0.00 | 0.00 | 76 | 1009.5 |
| 20260901070504 | 17 | 162 | 1.6 | 3.2 | 0.00 | 0.00 | 0.00 | 75 | 1009.3 |
| 20260901070005 | 17 | 184 | 3.2 | 4.8 | 0.00 | 0.00 | 0.00 | 75 | 1009.2 |
| 20260901065504 | 17 | 190 | 3.2 | 3.2 | 0.00 | 0.00 | 0.00 | 75 | 1009.2 |
| 20260901064505 | 17 | 183 | 1.6 | 3.2 | 0.00 | 0.00 | 0.00 | 73 | 1009.1 |
| 20260901064005 | 18 | 183 | 1.6 | 3.2 | 0.00 | 0.00 | 0.00 | 72 | 1009.1 |
| 20260901063505 | 18 | 183 | 1.6 | 4.8 | 0.00 | 0.00 | 0.00 | 72 | 1009.0 |
| 20260901063005 | 18 | 152 | 3.2 | 4.8 | 0.00 | 0.00 | 0.00 | 72 | 1008.9 |
| 20260901062504 | 18 | 138 | 3.2 | 4.8 | 0.00 | 0.00 | 0.00 | 72 | 1008.9 |
| 20260901062004 | 18 | 109 | 3.2 | 3.2 | 0.00 | 0.00 | 0.00 | 72 | 1008.8 |
| 20260901061505 | 18 | 160 | 1.6 | 3.2 | 0.00 | 0.00 | 0.00 | 71 | 1008.7 |
| 20260901061004 | 18 | 227 | 1.6 | 1.6 | 0.00 | 0.00 | 0.00 | 71 | 1008.6 |
| 20260901060505 | 18 | 226 | 3.2 | 8.0 | 0.00 | 0.00 | 0.00 | 70 | 1008.6 |
| 20260901060005 | 18 | 293 | 1.6 | 3.2 | 0.00 | 0.00 | 0.00 | 70 | 1008.5 |
| 20260901055505 | 18 | 311 | 0.0 | 3.2 | 0.00 | 0.00 | 0.00 | 70 | 1008.4 |
| 20260901055004 | 18 | 325 | 1.6 | 4.8 | 0.00 | 0.00 | 0.00 | 70 | 1008.4 |
| 20260901054505 | 18 | 337 | 3.2 | 3.2 | 0.00 | 0.00 | 0.00 | 69 | 1008.4 |
| 20260901054005 | 19 | 333 | 3.2 | 3.2 | 0.00 | 0.00 | 0.00 | 69 | 1008.4 |
| 20260901053504 | 19 | 281 | 1.6 | 3.2 | 0.00 | 0.00 | 0.00 | 68 | 1008.4 |
| 20260901053005 | 19 | 281 | 1.6 | 3.2 | 0.00 | 0.00 | 0.00 | 68 | 1008.4 |
| 20260901052505 | 19 | 281 | 0.0 | 3.2 | 0.00 | 0.00 | 0.00 | 67 | 1008.4 |
| 20260901052005 | 20 | 320 | 3.2 | 4.8 | 0.00 | 0.00 | 0.00 | 67 | 1008.3 |
| 20260901051004 | 20 | 207 | 1.6 | 3.2 | 0.00 | 0.00 | 0.00 | 67 | 1008.2 |
| 20260901050504 | 20 | 320 | 0.0 | 3.2 | 0.00 | 0.00 | 0.00 | 66 | 1008.2 |
| 20260901050004 | 20 | 279 | 1.6 | 1.6 | 0.00 | 0.00 | 0.00 | 65 | 1008.3 |
| 20260901045505 | 20 | 7 | 1.6 | 4.8 | 0.00 | 0.00 | 0.00 | 64 | 1008.3 |
| 20260901045004 | 20 | 315 | 0.0 | 3.2 | 0.00 | 0.00 | 0.00 | 64 | 1008.3 |
| 20260901044506 | 21 | 347 | 1.6 | 3.2 | 0.00 | 0.00 | 0.00 | 63 | 1008.3 |
| 20260901044005 | 21 | 291 | 1.6 | 3.2 | 0.00 | 0.00 | 0.00 | 62 | 1008.3 |
| 20260901043005 | 21 | 209 | 0.0 | 3.2 | 0.00 | 0.00 | 0.00 | 62 | 1008.1 |
| 20260901042504 | 21 | 209 | 1.6 | 4.8 | 0.00 | 0.00 | 0.00 | 60 | 1008.1 |
| 20260901042005 | 22 | 234 | 1.6 | 9.7 | 0.00 | 0.00 | 0.00 | 60 | 1008.0 |
| 20260901041005 | 22 | 31 | 1.6 | 3.2 | 0.00 | 0.00 | 0.00 | 59 | 1007.9 |
| 20260901040504 | 22 | 29 | 1.6 | 3.2 | 0.00 | 0.00 | 0.00 | 59 | 1007.7 |
| 20260901040004 | 22 | 0 | 3.2 | 4.8 | 0.00 | 0.00 | 0.00 | 58 | 1007.7 |
| 20260901035504 | 22 | 315 | 0.0 | 1.6 | 0.00 | 0.00 | 0.00 | 57 | 1007.6 |
| 20260901035005 | 22 | 316 | 1.6 | 4.8 | 0.00 | 0.00 | 0.00 | 57 | 1007.6 |
| 20260901034505 | 23 | 288 | 3.2 | 4.8 | 0.00 | 0.00 | 0.00 | 56 | 1007.4 |
| 20260901034005 | 23 | 287 | 3.2 | 4.8 | 0.00 | 0.00 | 0.00 | 56 | 1007.2 |
| 20260901033504 | 23 | 319 | 3.2 | 8.0 | 0.00 | 0.00 | 0.00 | 56 | 1007.1 |
| 20260901033005 | 23 | 326 | 3.2 | 12.9 | 0.00 | 0.00 | 0.00 | 55 | 1006.9 |
| 20260901032504 | 23 | 325 | 4.8 | 12.9 | 0.00 | 0.00 | 0.00 | 54 | 1006.8 |
| 20260901032005 | 23 | 343 | 8.0 | 11.3 | 0.00 | 0.00 | 0.00 | 54 | 1006.6 |
| 20260901031505 | 24 | 329 | 4.8 | 8.0 | 0.00 | 0.00 | 0.00 | 53 | 1006.6 |
| 20260901030505 | 25 | 330 | 3.2 | 8.0 | 0.00 | 0.00 | 0.00 | 51 | 1006.7 |
| 20260901030005 | 25 | 326 | 3.2 | 8.0 | 0.00 | 0.00 | 0.00 | 50 | 1006.8 |
| 20260901025505 | 25 | 331 | 3.2 | 4.8 | 0.00 | 0.00 | 0.00 | 50 | 1006.8 |
| 20260901025004 | 25 | 335 | 4.8 | 8.0 | 0.00 | 0.00 | 0.00 | 49 | 1006.8 |
| 20260901024504 | 25 | 327 | 4.8 | 12.9 | 0.00 | 0.00 | 0.00 | 48 | 1006.7 |
| 20260901024005 | 26 | 332 | 4.8 | 9.7 | 0.00 | 0.00 | 0.00 | 46 | 1006.7 |
| 20260901023004 | 26 | 335 | 1.6 | 3.2 | 0.00 | 0.00 | 0.00 | 42 | 1006.6 |
| 20260901022504 | 27 | 325 | 1.6 | 3.2 | 0.00 | 0.00 | 0.00 | 39 | 1006.6 |
| 20260901022004 | 27 | 324 | 3.2 | 4.8 | 0.00 | 0.00 | 0.00 | 39 | 1006.6 |
| 20260901021505 | 28 | 223 | 1.6 | 3.2 | 0.00 | 0.00 | 0.00 | 38 | 1006.5 |
| 20260901021005 | 28 | 205 | 3.2 | 4.8 | 0.00 | 0.00 | 0.00 | 37 | 1006.5 |
| 20260901020505 | 28 | 213 | 1.6 | 4.8 | 0.00 | 0.00 | 0.00 | 35 | 1006.4 |
| 20260901020005 | 29 | 200 | 6.4 | 11.3 | 0.00 | 0.00 | 0.00 | 33 | 1006.4 |
| 20260901015004 | 30 | 210 | 3.2 | 4.8 | 0.00 | 0.00 | 0.00 | 33 | 1006.4 |
| 20260901014505 | 30 | 207 | 1.6 | 3.2 | 0.00 | 0.00 | 0.00 | 30 | 1006.4 |
| 20260901014004 | 30 | 188 | 1.6 | 3.2 | 0.00 | 0.00 | 0.00 | 29 | 1006.3 |
| 20260901013504 | 30 | 164 | 1.6 | 4.8 | 0.00 | 0.00 | 0.00 | 25 | 1006.4 |
| 20260901013005 | 30 | 192 | 3.2 | 4.8 | 0.00 | 0.00 | 0.00 | 26 | 1006.3 |
| 20260901012505 | 30 | 185 | 3.2 | 8.0 | 0.00 | 0.00 | 0.00 | 27 | 1006.3 |
| 20260901012005 | 30 | 189 | 1.6 | 3.2 | 0.00 | 0.00 | 0.00 | 26 | 1006.4 |
| 20260901011004 | 30 | 122 | 1.6 | 3.2 | 0.00 | 0.00 | 0.00 | 24 | 1006.4 |
| 20260901010005 | 30 | 127 | 3.2 | 4.8 | 0.00 | 0.00 | 0.00 | 24 | 1006.5 |
| 20260901005505 | 30 | 108 | 1.6 | 3.2 | 0.00 | 0.00 | 0.00 | 26 | 1006.5 |
| 20260901005005 | 30 | 70 | 1.6 | 3.2 | 0.00 | 0.00 | 0.00 | 27 | 1006.5 |
| 20260901004505 | 30 | 97 | 1.6 | 4.8 | 0.00 | 0.00 | 0.00 | 26 | 1006.4 |
| 20260901003505 | 30 | 50 | 3.2 | 8.0 | 0.00 | 0.00 | 0.00 | 26 | 1006.6 |
| 20260901003004 | 30 | 59 | 3.2 | 8.0 | 0.00 | 0.00 | 0.00 | 28 | 1006.5 |
| 20260901002505 | 30 | 82 | 3.2 | 8.0 | 0.00 | 0.00 | 0.00 | 28 | 1006.6 |
| 20260901001505 | 30 | 6 | 1.6 | 3.2 | 0.00 | 0.00 | 0.00 | 28 | 1006.7 |
| 20260901001005 | 30 | 9 | 1.6 | 4.8 | 0.00 | 0.00 | 0.00 | 26 | 1006.6 |
| 20260901000504 | 30 | 84 | 3.2 | 8.0 | 0.00 | 0.00 | 0.00 | 28 | 1006.7 |
| 20260901000004 | 29 | 342 | 1.6 | 3.2 | 0.00 | 0.00 | 0.00 | 28 | 1006.7 |
| 20260831235505 | 29 | 0 | 1.6 | 3.2 | 0.00 | 0.00 | 0.00 | 28 | 1006.6 |
| 20260831235005 | 29 | 29 | 3.2 | 4.8 | 0.00 | 0.00 | 0.00 | 28 | 1006.7 |
| 20260831234504 | 29 | 340 | 1.6 | 3.2 | 0.00 | 0.00 | 0.00 | 30 | 1006.7 |
| 20260831234004 | 29 | 356 | 3.2 | 4.8 | 0.00 | 0.00 | 0.00 | 29 | 1006.8 |
| 20260831233504 | 29 | 24 | 1.6 | 4.8 | 0.00 | 0.00 | 0.00 | 30 | 1006.8 |
| 20260831233005 | 29 | 4 | 3.2 | 4.8 | 0.00 | 0.00 | 0.00 | 30 | 1006.7 |
| 20260831232505 | 29 | 0 | 1.6 | 3.2 | 0.00 | 0.00 | 0.00 | 28 | 1006.8 |
| 20260831232004 | 28 | 20 | 3.2 | 4.8 | 0.00 | 0.00 | 0.00 | 29 | 1006.9 |
| 20260831231504 | 29 | 6 | 1.6 | 3.2 | 0.00 | 0.00 | 0.00 | 30 | 1006.9 |
| 20260831231004 | 28 | 349 | 1.6 | 4.8 | 0.00 | 0.00 | 0.00 | 31 | 1007.0 |
| 20260831230504 | 28 | 32 | 1.6 | 3.2 | 0.00 | 0.00 | 0.00 | 32 | 1007.1 |
| 20260831230005 | 28 | 6 | 1.6 | 4.8 | 0.00 | 0.00 | 0.00 | 30 | 1007.1 |
| 20260831225504 | 28 | 16 | 3.2 | 4.8 | 0.00 | 0.00 | 0.00 | 34 | 1007.2 |
| 20260831225005 | 28 | 83 | 3.2 | 4.8 | 0.00 | 0.00 | 0.00 | 33 | 1007.2 |
| 20260831224505 | 28 | 27 | 4.8 | 12.9 | 0.00 | 0.00 | 0.00 | 34 | 1007.2 |
| 20260831224005 | 28 | 77 | 4.8 | 12.9 | 0.00 | 0.00 | 0.00 | 34 | 1007.3 |
| 20260831223504 | 28 | 71 | 4.8 | 9.7 | 0.00 | 0.00 | 0.00 | 35 | 1007.3 |
| 20260831223005 | 28 | 50 | 4.8 | 11.3 | 0.00 | 0.00 | 0.00 | 34 | 1007.3 |
| 20260831222504 | 28 | 98 | 4.8 | 11.3 | 0.00 | 0.00 | 0.00 | 35 | 1007.4 |
| 20260831221004 | 28 | 79 | 8.0 | 12.9 | 0.00 | 0.00 | 0.00 | 34 | 1007.5 |
| 20260831220505 | 28 | 221 | 1.6 | 8.0 | 0.00 | 0.00 | 0.00 | 36 | 1007.6 |
| 20260831220004 | 27 | 72 | 3.2 | 8.0 | 0.00 | 0.00 | 0.00 | 36 | 1007.6 |
| 20260831215504 | 28 | 83 | 4.8 | 8.0 | 0.00 | 0.00 | 0.00 | 35 | 1007.7 |
| 20260831214504 | 28 | 109 | 3.2 | 9.7 | 0.00 | 0.00 | 0.00 | 36 | 1007.7 |
| 20260831213504 | 27 | 340 | 1.6 | 3.2 | 0.00 | 0.00 | 0.00 | 38 | 1007.8 |
| 20260831212504 | 27 | 8 | 3.2 | 8.0 | 0.00 | 0.00 | 0.00 | 38 | 1008.0 |
| 20260831212004 | 27 | 7 | 1.6 | 3.2 | 0.00 | 0.00 | 0.00 | 39 | 1008.0 |
| 20260831211504 | 27 | 317 | 3.2 | 3.2 | 0.00 | 0.00 | 0.00 | 38 | 1008.1 |
| 20260831210505 | 26 | 3 | 3.2 | 4.8 | 0.00 | 0.00 | 0.00 | 38 | 1008.3 |
| 20260831210004 | 26 | 327 | 1.6 | 3.2 | 0.00 | 0.00 | 0.00 | 39 | 1008.4 |
| 20260831205504 | 26 | 248 | 3.2 | 4.8 | 0.00 | 0.00 | 0.00 | 37 | 1008.4 |
| 20260831205004 | 26 | 163 | 4.8 | 8.0 | 0.00 | 0.00 | 0.00 | 38 | 1008.4 |
| 20260831204505 | 26 | 85 | 4.8 | 12.9 | 0.00 | 0.00 | 0.00 | 38 | 1008.4 |
| 20260831204005 | 26 | 42 | 3.2 | 9.7 | 0.00 | 0.00 | 0.00 | 38 | 1008.5 |
| 20260831203505 | 26 | 67 | 1.6 | 4.8 | 0.00 | 0.00 | 0.00 | 38 | 1008.6 |
| 20260831203005 | 26 | 62 | 4.8 | 8.0 | 0.00 | 0.00 | 0.00 | 38 | 1008.7 |
| 20260831202505 | 26 | 351 | 1.6 | 8.0 | 0.00 | 0.00 | 0.00 | 36 | 1008.8 |
| 20260831202004 | 26 | 96 | 6.4 | 12.9 | 0.00 | 0.00 | 0.00 | 36 | 1008.9 |
| 20260831200504 | 26 | 224 | 1.6 | 4.8 | 0.00 | 0.00 | 0.00 | 39 | 1009.0 |
| 20260831200004 | 25 | 152 | 4.8 | 9.7 | 0.00 | 0.00 | 0.00 | 40 | 1009.0 |
| 20260831195504 | 26 | 90 | 8.0 | 12.9 | 0.00 | 0.00 | 0.00 | 40 | 1009.1 |
| 20260831195004 | 26 | 215 | 1.6 | 3.2 | 0.00 | 0.00 | 0.00 | 41 | 1009.1 |
| 20260831194504 | 25 | 100 | 3.2 | 9.7 | 0.00 | 0.00 | 0.00 | 42 | 1009.2 |
| 20260831194005 | 25 | 244 | 1.6 | 14.5 | 0.00 | 0.00 | 0.00 | 42 | 1009.2 |
| 20260831193504 | 25 | 93 | 1.6 | 3.2 | 0.00 | 0.00 | 0.00 | 43 | 1009.3 |
| 20260831193005 | 25 | 38 | 3.2 | 8.0 | 0.00 | 0.00 | 0.00 | 43 | 1009.3 |
| 20260831192004 | 25 | 47 | 1.6 | 8.0 | 0.00 | 0.00 | 0.00 | 42 | 1009.4 |
| 20260831191505 | 25 | 301 | 3.2 | 8.0 | 0.00 | 0.00 | 0.00 | 43 | 1009.4 |
| 20260831191004 | 24 | 246 | 1.6 | 3.2 | 0.00 | 0.00 | 0.00 | 43 | 1009.5 |